Location: Homewood
(41.1836°S, 175.9581°E)
Time: 10:21:40
(UTC+00:00)

Cosmos 1867 - Visible Passes

Search period start: 18 July 2024 00:00
Search period end: 28 July 2024 00:00
Orbit: 772 x 802 km, 65.0° (Epoch: 17 July)

Date Brightness Start Highest point End Pass type
(mag) Time Alt. Az. Time Alt. Az. Time Alt. Az.
18 Jul 4.5 17:41:21 10° N 17:46:31 49° ENE 17:51:43 10° SE visible
19 Jul 5.0 17:09:53 10° N 17:14:45 35° ENE 17:19:37 10° SE visible
19 Jul 4.1 18:53:21 10° WNW 18:58:17 36° SW 19:03:15 10° SSE visible
20 Jul 5.5 16:38:37 10° NNE 16:43:00 26° ENE 16:47:23 10° SE visible
20 Jul 3.8 18:21:07 10° NW 18:26:17 47° SW 18:31:30 10° SSE visible
21 Jul 5.9 16:09:31 16° NE 16:11:18 19° ENE 16:14:56 10° ESE visible
21 Jul 3.5 17:50:19 18° NW 17:54:20 63° SW 17:59:43 10° SSE visible
22 Jul 6.3 15:40:15 13° E 15:40:15 13° E 15:41:59 10° E visible
22 Jul 3.4 17:21:00 51° NW 17:22:26 85° WSW 17:27:51 10° SSE visible
23 Jul 3.8 16:51:10 64° ESE 16:51:10 64° ESE 16:55:57 10° SE visible
23 Jul 4.8 18:31:54 15° W 18:34:40 21° SW 18:38:45 10° S visible
24 Jul 5.1 16:21:04 30° ESE 16:21:04 30° ESE 16:23:58 10° SE visible
24 Jul 4.5 18:01:46 26° WSW 18:02:34 27° SW 18:07:08 10° SSE visible
25 Jul 6.1 15:50:44 16° SE 15:50:44 16° SE 15:51:53 10° SE visible
25 Jul 4.4 17:31:25 32° SSW 17:31:25 32° SSW 17:35:27 10° SSE visible
26 Jul 4.9 17:00:55 28° S 17:00:55 28° S 17:03:43 10° SSE visible
26 Jul 5.5 18:42:23 10° SW 18:43:31 11° SSW 18:44:39 10° SSW visible
27 Jul 5.5 16:30:19 20° SSE 16:30:19 20° SSE 16:31:55 10° SSE visible
27 Jul 5.4 18:10:59 13° SW 18:11:16 13° SSW 18:13:47 10° S visible
